TimeCST,TemperatureF,Dew PointF,Humidity,Sea Level PressureIn,VisibilityMPH,Wind Direction,Wind SpeedMPH,Gust SpeedMPH,PrecipitationIn,Events,Conditions,WindDirDegrees,DateUTC
12:16 AM,30.2,26.6,86,29.53,10.0,NW,31.1,42.6,0.00,,Overcast,310,2012-12-21 06:16:00
12:52 AM,30.0,26.1,85,29.58,10.0,WNW,32.2,41.4,0.00,,Overcast,300,2012-12-21 06:52:00
1:52 AM,28.9,25.0,85,29.63,10.0,WNW,32.2,42.6,0.00,,Overcast,300,2012-12-21 07:52:00
2:21 AM,28.4,24.8,86,29.64,10.0,WNW,32.2,43.7,0.00,,Overcast,300,2012-12-21 08:21:00
2:52 AM,28.0,23.0,81,29.69,10.0,NW,33.4,42.6,0.00,,Overcast,310,2012-12-21 08:52:00
3:52 AM,27.0,21.9,81,29.73,10.0,WNW,31.1,40.3,0.00,,Overcast,300,2012-12-21 09:52:00
4:52 AM,26.1,21.0,81,29.77,10.0,NW,29.9,41.4,N/A,,Mostly Cloudy,310,2012-12-21 10:52:00
5:25 AM,24.8,19.4,80,29.77,10.0,NW,28.8,42.6,N/A,,Overcast,310,2012-12-21 11:25:00
5:52 AM,25.0,19.9,81,29.81,10.0,WNW,27.6,38.0,N/A,,Overcast,300,2012-12-21 11:52:00
6:18 AM,24.8,19.4,80,29.81,10.0,WNW,28.8,39.1,N/A,,Mostly Cloudy,300,2012-12-21 12:18:00
6:52 AM,23.0,18.0,81,29.87,10.0,NW,29.9,38.0,N/A,,Clear,310,2012-12-21 12:52:00
7:44 AM,21.2,17.6,86,29.87,10.0,WNW,23.0,31.1,N/A,,Mostly Cloudy,300,2012-12-21 13:44:00
7:52 AM,21.9,17.1,82,29.90,10.0,WNW,24.2,31.1,N/A,,Mostly Cloudy,300,2012-12-21 13:52:00
8:10 AM,21.2,17.6,86,29.89,10.0,WNW,27.6,36.8,N/A,,Scattered Clouds,300,2012-12-21 14:10:00
8:18 AM,21.2,17.6,86,29.89,10.0,WNW,25.3,36.8,N/A,,Mostly Cloudy,300,2012-12-21 14:18:00
8:28 AM,21.2,17.6,86,29.90,10.0,NW,28.8,40.3,N/A,,Scattered Clouds,310,2012-12-21 14:28:00
8:52 AM,21.9,17.1,82,29.94,10.0,NW,26.5,35.7,N/A,,Partly Cloudy,310,2012-12-21 14:52:00
9:52 AM,23.0,18.0,81,29.97,10.0,NW,26.5,33.4,N/A,,Clear,310,2012-12-21 15:52:00
10:52 AM,23.0,17.1,78,29.99,10.0,NW,27.6,33.4,N/A,,Clear,320,2012-12-21 16:52:00
11:52 AM,24.1,17.1,75,30.01,10.0,NW,25.3,31.1,N/A,,Clear,310,2012-12-21 17:52:00
12:52 PM,24.1,18.0,77,30.03,10.0,NW,25.3,-,N/A,,Clear,320,2012-12-21 18:52:00
1:52 PM,25.0,18.0,75,30.05,10.0,NW,18.4,29.9,N/A,,Clear,310,2012-12-21 19:52:00
2:52 PM,25.0,18.0,75,30.06,10.0,NW,20.7,26.5,N/A,,Clear,320,2012-12-21 20:52:00
3:52 PM,24.1,18.0,77,30.11,10.0,NW,17.3,-,N/A,,Clear,310,2012-12-21 21:52:00
4:52 PM,21.9,16.0,78,30.15,10.0,NW,15.0,-,N/A,,Clear,310,2012-12-21 22:52:00
5:52 PM,21.0,15.1,78,30.18,10.0,NW,12.7,-,N/A,,Clear,310,2012-12-21 23:52:00
6:52 PM,19.9,15.1,81,30.19,10.0,WNW,9.2,-,N/A,,Clear,300,2012-12-22 00:52:00
7:52 PM,19.0,14.0,81,30.21,10.0,WNW,9.2,-,N/A,,Clear,300,2012-12-22 01:52:00
8:52 PM,19.0,12.9,77,30.22,10.0,NW,11.5,-,N/A,,Clear,310,2012-12-22 02:52:00
9:52 PM,18.0,12.9,81,30.21,10.0,NW,5.8,-,N/A,,Clear,310,2012-12-22 03:52:00
10:52 PM,17.1,12.0,81,30.23,10.0,NW,8.1,-,N/A,,Clear,310,2012-12-22 04:52:00
11:52 PM,16.0,12.0,84,30.22,10.0,NW,6.9,-,N/A,,Clear,310,2012-12-22 05:52:00